• în România
  • Lista ţărilor
  • Pe 7 zile
  • Temperatura apei
  • Hartă satelitară
  • Meteo pe hartă
  • Widget-uri
  • user-avatar
    Intrare

    Meteo pe oră la Vinkovcy

    Astăzi, 19 Iunie, Marţi

    Timp Temperatura Precipitaţii Vânt Presiune Umiditate
    00:00 +18°C° 0,1 mm 2 m/s 755 mmHg 92%
    01:00 +18°C° 0 mm 2 m/s 755 mmHg 93%
    02:00 +18°C° 0,1 mm 2 m/s 755 mmHg 94%
    03:00 +18°C° 0,1 mm 2 m/s 755 mmHg 94%
    04:00 +18°C° 0,1 mm 2 m/s 756 mmHg 95%
    05:00 +19°C° 0 mm 2 m/s 756 mmHg 92%
    06:00 +20°C° 0 mm 2 m/s 756 mmHg 89%
    07:00 +22°C° 0 mm 3 m/s 756 mmHg 85%
    08:00 +24°C° 0,6 mm 3 m/s 756 mmHg 81%
    09:00 +25°C° 0,6 mm 3 m/s 756 mmHg 77%
    10:00 +26°C° 0,6 mm 3 m/s 756 mmHg 73%
    11:00 +26°C° 0,9 mm 3 m/s 756 mmHg 72%
    12:00 +27°C° 0,9 mm 3 m/s 756 mmHg 71%
    13:00 +27°C° 0 mm 3 m/s 756 mmHg 71%
    14:00 +27°C° 0,9 mm 3 m/s 756 mmHg 71%
    15:00 +27°C° 0,9 mm 3 m/s 756 mmHg 72%
    16:00 +27°C° 0,9 mm 3 m/s 756 mmHg 72%
    17:00 +26°C° 0,8 mm 3 m/s 756 mmHg 77%
    18:00 +25°C° 0,8 mm 2 m/s 756 mmHg 82%
    19:00 +24°C° 0,8 mm 2 m/s 756 mmHg 86%
    20:00 +23°C° 0,4 mm 2 m/s 756 mmHg 88%
    21:00 +21°C° 0,4 mm 2 m/s 757 mmHg 90%
    22:00 +21°C° 0,4 mm 1 m/s 757 mmHg 91%
    23:00 +21°C° 0,1 mm 1 m/s 757 mmHg 92%

    Mâine, 20 Iunie, Miercuri

    Timp Temperatura Precipitaţii Vânt Presiune Umiditate
    00:00 +21°C° 0,1 mm 1 m/s 757 mmHg 92%
    01:00 +20°C° 0,1 mm 1 m/s 758 mmHg 93%
    02:00 +20°C° 0 mm 1 m/s 758 mmHg 93%
    03:00 +20°C° 0 mm 1 m/s 758 mmHg 94%
    04:00 +19°C° 0 mm 1 m/s 758 mmHg 94%
    05:00 +21°C° 0 mm 1 m/s 758 mmHg 91%
    06:00 +22°C° 0 mm 1 m/s 758 mmHg 88%
    07:00 +23°C° 0 mm 1 m/s 758 mmHg 85%
    08:00 +25°C° 0,3 mm 1 m/s 758 mmHg 80%
    09:00 +27°C° 0,3 mm 1 m/s 758 mmHg 74%
    10:00 +28°C° 0,3 mm 1 m/s 758 mmHg 69%
    11:00 +29°C° 0,2 mm 1 m/s 758 mmHg 64%
    12:00 +30°C° 0,2 mm 1 m/s 758 mmHg 58%
    13:00 +31°C° 0,2 mm 1 m/s 757 mmHg 53%
    14:00 +31°C° 0 mm 1 m/s 757 mmHg 54%
    15:00 +31°C° 0 mm 2 m/s 757 mmHg 54%
    16:00 +31°C° 0 mm 2 m/s 756 mmHg 54%
    17:00 +30°C° 0 mm 1 m/s 756 mmHg 59%
    18:00 +28°C° 0 mm 1 m/s 756 mmHg 64%
    19:00 +27°C° 0 mm 1 m/s 756 mmHg 70%
    20:00 +26°C° 0 mm 1 m/s 757 mmHg 72%
    21:00 +25°C° 0 mm 1 m/s 757 mmHg 74%
    22:00 +24°C° 0 mm 1 m/s 757 mmHg 77%
    23:00 +21°C° 0 mm 0 m/s 757 mmHg 79%

    Poimâine, 21 Iunie, Joi

    Timp Temperatura Precipitaţii Vânt Presiune Umiditate
    00:00 +21°C° 0 mm 0 m/s 757 mmHg 81%
    01:00 +20°C° 0 mm 0 m/s 756 mmHg 83%
    02:00 +20°C° 0 mm 0 m/s 756 mmHg 84%
    03:00 +19°C° 0 mm 0 m/s 756 mmHg 85%
    04:00 +19°C° 0 mm 0 m/s 756 mmHg 86%
    05:00 +21°C° 0 mm 0 m/s 756 mmHg 82%
    06:00 +24°C° 0 mm 1 m/s 755 mmHg 78%
    07:00 +25°C° 0 mm 1 m/s 755 mmHg 73%
    08:00 +27°C° 0 mm 1 m/s 755 mmHg 69%
    09:00 +28°C° 0 mm 1 m/s 755 mmHg 64%
    10:00 +30°C° 0 mm 1 m/s 754 mmHg 59%
    11:00 +31°C° 0 mm 2 m/s 754 mmHg 56%
    12:00 +31°C° 0 mm 2 m/s 753 mmHg 53%
    13:00 +32°C° 0 mm 2 m/s 753 mmHg 49%
    14:00 +33°C° 0 mm 3 m/s 752 mmHg 51%
    15:00 +33°C° 0 mm 3 m/s 752 mmHg 53%
    16:00 +33°C° 0 mm 3 m/s 751 mmHg 54%
    17:00 +30°C° 0 mm 2 m/s 751 mmHg 60%
    18:00 +28°C° 0 mm 2 m/s 751 mmHg 66%
    19:00 +27°C° 0 mm 2 m/s 751 mmHg 73%
    20:00 +26°C° 0 mm 1 m/s 751 mmHg 74%
    21:00 +25°C° 0 mm 1 m/s 751 mmHg 76%
    22:00 +24°C° 0 mm 1 m/s 751 mmHg 78%
    23:00 +23°C° 0,1 mm 1 m/s 751 mmHg 79%

    22 Iunie, Vineri

    Timp Temperatura Precipitaţii Vânt Presiune Umiditate
    00:00 +23°C° 0,1 mm 1 m/s 751 mmHg 81%
    01:00 +23°C° 0,1 mm 2 m/s 751 mmHg 82%
    02:00 +21°C° 0,6 mm 3 m/s 751 mmHg 85%
    03:00 +20°C° 0,6 mm 3 m/s 752 mmHg 88%
    04:00 +20°C° 0,6 mm 4 m/s 752 mmHg 91%
    05:00 +19°C° 0,3 mm 5 m/s 753 mmHg 88%
    06:00 +19°C° 0,3 mm 5 m/s 753 mmHg 85%
    07:00 +19°C° 0,3 mm 6 m/s 754 mmHg 82%
    08:00 +17°C° 0,1 mm 5 m/s 755 mmHg 79%
    09:00 +15°C° 0,1 mm 5 m/s 755 mmHg 75%
    10:00 +14°C° 0,1 mm 5 m/s 756 mmHg 72%
    11:00 +14°C° 0 mm 5 m/s 756 mmHg 71%
    12:00 +13°C° 0 mm 5 m/s 757 mmHg 70%
    13:00 +13°C° 0 mm 5 m/s 757 mmHg 69%
    14:00 +12°C° 0,1 mm 5 m/s 758 mmHg 71%
    15:00 +12°C° 0,1 mm 4 m/s 758 mmHg 74%
    16:00 +12°C° 0,1 mm 4 m/s 758 mmHg 76%
    17:00 +12°C° 0,1 mm 3 m/s 758 mmHg 79%
    18:00 +11°C° 0,1 mm 3 m/s 759 mmHg 81%
    19:00 +11°C° 0,1 mm 3 m/s 759 mmHg 84%
    20:00 +11°C° 0,1 mm 3 m/s 759 mmHg 86%
    21:00 +10°C° 0,1 mm 3 m/s 759 mmHg 88%
    22:00 +10°C° 0,1 mm 3 m/s 759 mmHg 90%
    23:00 +9°C° 0 mm 3 m/s 759 mmHg 90%

    23 Iunie, Sâmbătă

    Timp Temperatura Precipitaţii Vânt Presiune Umiditate
    00:00 +9°C° 0 mm 2 m/s 759 mmHg 91%
    01:00 +8°C° 0 mm 2 m/s 759 mmHg 92%
    02:00 +8°C° 0 mm 2 m/s 759 mmHg 92%
    03:00 +7°C° 0 mm 2 m/s 759 mmHg 92%
    04:00 +7°C° 0 mm 2 m/s 759 mmHg 92%
    05:00 +9°C° 0 mm 3 m/s 759 mmHg 87%
    06:00 +11°C° 0 mm 3 m/s 759 mmHg 82%
    07:00 +13°C° 0 mm 3 m/s 759 mmHg 78%
    08:00 +14°C° 0 mm 3 m/s 759 mmHg 71%
    09:00 +17°C° 0 mm 3 m/s 759 mmHg 65%
    10:00 +19°C° 0 mm 3 m/s 758 mmHg 58%
    11:00 +20°C° 0 mm 3 m/s 758 mmHg 56%
    12:00 +21°C° 0 mm 3 m/s 758 mmHg 53%
    13:00 +23°C° 0 mm 2 m/s 757 mmHg 51%
    14:00 +22°C° 0 mm 3 m/s 757 mmHg 51%
    15:00 +22°C° 0 mm 3 m/s 757 mmHg 52%
    16:00 +22°C° 0 mm 3 m/s 757 mmHg 52%
    17:00 +21°C° 0 mm 2 m/s 757 mmHg 58%
    18:00 +19°C° 0 mm 2 m/s 757 mmHg 64%
    19:00 +19°C° 0 mm 1 m/s 757 mmHg 70%
    20:00 +18°C° 0 mm 1 m/s 757 mmHg 73%
    21:00 +15°C° 0 mm 1 m/s 757 mmHg 76%
    22:00 +14°C° 0 mm 1 m/s 758 mmHg 79%
    23:00 +14°C° 0 mm 1 m/s 758 mmHg 80%

    24 Iunie, Duminică

    Timp Temperatura Precipitaţii Vânt Presiune Umiditate
    00:00 +13°C° 0 mm 1 m/s 758 mmHg 81%
    01:00 +13°C° 0 mm 1 m/s 758 mmHg 82%
    02:00 +12°C° 0 mm 1 m/s 758 mmHg 83%
    03:00 +12°C° 0 mm 1 m/s 758 mmHg 85%
    04:00 +12°C° 0 mm 1 m/s 758 mmHg 86%
    05:00 +13°C° 0 mm 1 m/s 758 mmHg 79%
    06:00 +15°C° 0 mm 1 m/s 758 mmHg 73%
    07:00 +18°C° 0 mm 1 m/s 758 mmHg 67%
    08:00 +19°C° 0 mm 2 m/s 758 mmHg 61%
    09:00 +20°C° 0 mm 2 m/s 758 mmHg 56%
    10:00 +21°C° 0 mm 3 m/s 758 mmHg 51%
    11:00 +22°C° 0 mm 3 m/s 757 mmHg 50%
    12:00 +22°C° 0 mm 3 m/s 757 mmHg 50%
    13:00 +24°C° 0 mm 3 m/s 757 mmHg 49%
    14:00 +24°C° 0 mm 3 m/s 756 mmHg 50%
    15:00 +24°C° 0 mm 3 m/s 756 mmHg 51%
    16:00 +24°C° 0 mm 3 m/s 756 mmHg 52%
    17:00 +21°C° 0 mm 2 m/s 756 mmHg 58%
    18:00 +20°C° 0 mm 2 m/s 756 mmHg 64%
    19:00 +19°C° 0 mm 2 m/s 756 mmHg 71%
    20:00 +19°C° 0 mm 1 m/s 757 mmHg 74%
    21:00 +16°C° 0 mm 1 m/s 757 mmHg 77%
    22:00 +15°C° 0 mm 1 m/s 757 mmHg 80%
    23:00 +14°C° 0 mm 1 m/s 757 mmHg 81%
    Arată mai mult